TimeEDT,TemperatureF,Dew PointF,Humidity,Sea Level PressureIn,VisibilityMPH,Wind Direction,Wind SpeedMPH,Gust SpeedMPH,PrecipitationIn,Events,Conditions,WindDirDegrees,DateUTC
12:51 AM,71.1,64.9,81,29.87,10.0,SSW,12.7,19.6,0.00,,Overcast,210,2013-06-26 04:51:00
1:51 AM,69.1,66.0,90,29.81,7.0,South,11.5,-,0.06,Rain,Light Rain,180,2013-06-26 05:51:00
2:51 AM,68.0,64.9,90,29.85,5.0,SSW,11.5,19.6,0.06,Rain,Heavy Rain,210,2013-06-26 06:51:00
3:51 AM,68.0,64.0,87,29.84,10.0,SSW,11.5,-,0.04,,Mostly Cloudy,200,2013-06-26 07:51:00
4:51 AM,68.0,64.9,90,29.86,10.0,SSW,9.2,-,0.00,Rain,Light Rain,210,2013-06-26 08:51:00
5:51 AM,68.0,64.9,90,29.86,10.0,South,5.8,-,0.00,,Overcast,190,2013-06-26 09:51:00
6:46 AM,68.0,64.4,88,29.86,10.0,South,6.9,-,N/A,,Mostly Cloudy,190,2013-06-26 10:46:00
6:51 AM,68.0,64.9,90,29.85,10.0,South,5.8,-,N/A,,Mostly Cloudy,180,2013-06-26 10:51:00
7:06 AM,69.8,64.4,83,29.85,10.0,SSW,5.8,-,N/A,,Scattered Clouds,200,2013-06-26 11:06:00
7:51 AM,70.0,66.0,87,29.83,10.0,South,8.1,-,0.00,,Scattered Clouds,190,2013-06-26 11:51:00
7:53 AM,69.8,66.2,88,29.85,10.0,SSW,8.1,-,N/A,,Mostly Cloudy,200,2013-06-26 11:53:00
8:00 AM,69.8,66.2,88,29.84,10.0,South,10.4,-,N/A,,Mostly Cloudy,190,2013-06-26 12:00:00
8:51 AM,71.1,66.0,84,29.86,10.0,SW,6.9,-,N/A,,Overcast,230,2013-06-26 12:51:00
9:51 AM,72.0,66.0,81,29.87,10.0,SW,9.2,-,N/A,,Overcast,220,2013-06-26 13:51:00
10:51 AM,72.0,66.0,81,29.87,10.0,SSW,10.4,-,N/A,,Mostly Cloudy,200,2013-06-26 14:51:00
11:11 AM,73.4,66.2,78,29.89,10.0,WSW,6.9,-,N/A,,Mostly Cloudy,250,2013-06-26 15:11:00
11:44 AM,75.2,64.4,69,29.88,10.0,Variable,6.9,-,N/A,,Scattered Clouds,0,2013-06-26 15:44:00
11:51 AM,75.9,66.0,71,29.87,10.0,WSW,8.1,-,N/A,,Scattered Clouds,240,2013-06-26 15:51:00
12:51 PM,75.9,63.0,64,29.88,10.0,West,13.8,21.9,N/A,,Partly Cloudy,260,2013-06-26 16:51:00
1:51 PM,77.0,64.0,64,29.88,10.0,West,12.7,20.7,N/A,,Clear,270,2013-06-26 17:51:00
2:51 PM,77.0,64.9,66,29.87,10.0,West,15.0,18.4,N/A,,Clear,270,2013-06-26 18:51:00
3:51 PM,77.0,66.0,69,29.86,10.0,West,12.7,-,N/A,,Clear,270,2013-06-26 19:51:00
4:51 PM,77.0,64.9,66,29.84,10.0,WNW,9.2,-,N/A,,Clear,290,2013-06-26 20:51:00
5:51 PM,78.1,64.9,64,29.81,10.0,Calm,Calm,-,N/A,,Clear,0,2013-06-26 21:51:00
6:51 PM,79.0,64.0,60,29.81,10.0,West,5.8,-,N/A,,Clear,270,2013-06-26 22:51:00
7:51 PM,78.1,63.0,60,29.80,10.0,WSW,4.6,-,N/A,,Clear,250,2013-06-26 23:51:00
8:51 PM,75.9,63.0,64,29.80,10.0,Calm,Calm,-,N/A,,Clear,0,2013-06-27 00:51:00
9:51 PM,73.0,64.0,73,29.81,10.0,Calm,Calm,-,N/A,,Clear,0,2013-06-27 01:51:00
10:51 PM,72.0,64.0,76,29.81,10.0,Calm,Calm,-,N/A,,Partly Cloudy,0,2013-06-27 02:51:00
11:51 PM,71.1,66.0,84,29.80,10.0,Calm,Calm,-,N/A,,Clear,0,2013-06-27 03:51:00